Location: Unspecified
(0.0000°N, 0.0000°E)
Time: 17:55:26
(UTC+00:00)

Vanguard 1 Rocket - Pass Details

Date: 17 April 2026
Orbit: 655 x 4212 km, 34.3° (Epoch: 17 May)

Event Time Altitude Azimuth Distance (km) Brightness Sun altitude
Rises 19:38:34 0° 249° (WSW) 6,383 12.6 -24.3°
Reaches altitude 10° 19:42:17 10° 254° (WSW) 5,757 12.3 -25.2°
Maximum altitude 20:01:37 54° 326° (NNW) 4,504 10.9 -29.9°
Drops below altitude 10° 20:26:58 10° 40° (NE) 7,164 11.7 -36.1°
Sets 20:32:28 0° 45° (NE) 7,933 11.9 -37.5°
